EA1FBN Weather Reports


time (UTC)temp
C
wind
direction
speed
KPH
gust
KPH
rain 1hr
cm
rain 24hr
cm
rain mn
cm
humidity
%
barometer
mb
20260506185003 16 179 1.6 1.6 0.00 0.05 0.05 45 1012.9
20260506184504 16 179 1.6 3.2 0.00 0.05 0.05 42 1012.8
20260506184004 16 179 1.6 1.6 0.00 0.05 0.05 43 1012.8
20260506183503 16 205 1.6 3.2 0.00 0.05 0.05 44 1012.8
20260506183004 16 236 3.2 4.8 0.00 0.05 0.05 42 1012.8
20260506182504 16 237 1.6 6.4 0.00 0.05 0.05 40 1012.9
20260506182004 17 202 0.0 4.8 0.00 0.05 0.05 38 1012.8
20260506181504 17 27 0.0 0.0 0.00 0.05 0.05 37 1012.9
20260506181004 17 27 0.0 0.0 0.00 0.05 0.05 38 1013.0
20260506180504 17 27 1.6 3.2 0.00 0.05 0.05 38 1012.9
20260506180005 16 116 1.6 3.2 0.00 0.05 0.05 40 1013.0
20260506175504 16 120 1.6 3.2 0.00 0.05 0.05 39 1013.0
20260506175004 16 166 1.6 6.4 0.00 0.05 0.05 40 1013.1
20260506174504 16 136 1.6 4.8 0.00 0.05 0.05 39 1013.1
20260506174004 16 79 1.6 3.2 0.00 0.05 0.05 39 1013.2
20260506173504 16 108 1.6 8.0 0.00 0.05 0.05 39 1013.2
20260506173004 16 60 1.6 6.4 0.00 0.05 0.05 39 1013.3
20260506172504 16 87 3.2 6.4 0.00 0.05 0.05 40 1013.3
20260506172004 15 105 4.8 11.3 0.00 0.05 0.05 40 1013.4
20260506171504 16 115 1.6 9.7 0.00 0.05 0.05 40 1013.4
20260506171004 16 122 3.2 4.8 0.00 0.05 0.05 42 1013.4
20260506170504 16 90 4.8 11.3 0.00 0.05 0.05 41 1013.4
20260506170004 16 102 4.8 9.7 0.00 0.05 0.05 40 1013.5
20260506165504 16 63 4.8 8.0 0.00 0.05 0.05 38 1013.5
20260506165004 16 142 4.8 9.7 0.00 0.05 0.05 39 1013.5
20260506164504 16 117 4.8 9.7 0.00 0.05 0.05 39 1013.5
20260506164004 16 122 6.4 11.3 0.00 0.05 0.05 39 1013.4
20260506163504 16 158 6.4 11.3 0.00 0.05 0.05 40 1013.4
20260506163004 16 111 6.4 12.9 0.00 0.05 0.05 40 1013.5
20260506162504 16 183 4.8 9.7 0.00 0.05 0.05 40 1013.6
20260506162004 16 102 4.8 11.3 0.00 0.05 0.05 40 1013.6
20260506161504 16 148 8.0 12.9 0.00 0.05 0.05 39 1013.6
20260506161004 16 60 6.4 12.9 0.00 0.05 0.05 38 1013.6
20260506160504 16 98 4.8 16.1 0.00 0.05 0.05 38 1013.6
20260506160004 16 4 4.8 9.7 0.00 0.05 0.05 40 1013.6
20260506155504 16 93 3.2 14.5 0.00 0.05 0.05 43 1013.6
20260506155004 15 251 4.8 11.3 0.00 0.05 0.05 41 1013.7
20260506154504 15 138 6.4 14.5 0.00 0.05 0.05 42 1013.7
20260506154004 15 138 4.8 9.7 0.00 0.05 0.05 41 1013.7
20260506153504 15 73 3.2 8.0 0.00 0.05 0.05 43 1013.8
20260506153004 15 279 3.2 6.4 0.00 0.05 0.05 44 1013.8
20260506152504 15 220 3.2 8.0 0.00 0.05 0.05 43 1013.9
20260506152004 16 209 1.6 6.4 0.00 0.05 0.05 42 1014.0
20260506151504 16 291 1.6 4.8 0.00 0.05 0.05 42 1014.0
20260506151004 15 356 1.6 4.8 0.00 0.05 0.05 46 1014.0
20260506150504 15 334 1.6 4.8 0.00 0.05 0.05 43 1014.1
20260506150004 16 326 1.6 6.4 0.00 0.05 0.05 43 1014.2
20260506145504 15 43 1.6 4.8 0.00 0.05 0.05 45 1014.2
20260506145004 15 98 3.2 9.7 0.00 0.05 0.05 43 1014.3
20260506144504 15 137 3.2 6.4 0.00 0.05 0.05 46 1014.3
20260506144004 15 342 3.2 6.4 0.00 0.05 0.05 45 1014.4
20260506143504 14 87 3.2 8.0 0.00 0.05 0.05 47 1014.5
20260506143004 14 129 3.2 6.4 0.00 0.05 0.05 48 1014.5
20260506142504 14 113 4.8 6.4 0.00 0.05 0.05 49 1014.6
20260506142004 14 115 6.4 9.7 0.00 0.05 0.05 50 1014.7
20260506141504 14 109 8.0 14.5 0.00 0.05 0.05 48 1014.7
20260506141004 15 96 6.4 12.9 0.00 0.05 0.05 49 1014.7
20260506140504 15 79 6.4 12.9 0.00 0.05 0.05 50 1014.8
20260506140005 14 79 8.0 12.9 0.00 0.05 0.05 48 1014.8
20260506135504 15 89 8.0 17.7 0.00 0.05 0.05 50 1014.8
20260506135004 15 91 4.8 17.7 0.00 0.05 0.05 49 1014.9
20260506134504 15 111 4.8 8.0 0.00 0.05 0.05 50 1014.9
20260506134004 15 69 4.8 11.3 0.00 0.05 0.05 48 1015.0
20260506133504 15 65 4.8 11.3 0.00 0.05 0.05 50 1015.1
20260506133004 15 100 4.8 9.7 0.00 0.05 0.05 52 1015.1
20260506132504 14 47 4.8 14.5 0.00 0.05 0.05 50 1015.1
20260506132005 14 81 3.2 12.9 0.00 0.05 0.05 52 1015.1
20260506131505 14 156 1.6 12.9 0.00 0.05 0.05 52 1015.2
20260506131005 14 153 1.6 1.6 0.00 0.05 0.05 52 1015.2
20260506130505 13 125 4.8 8.0 0.00 0.05 0.05 50 1015.3
20260506130005 13 147 4.8 9.7 0.00 0.05 0.05 53 1015.3
20260506125505 13 150 4.8 11.3 0.00 0.05 0.05 58 1015.3
20260506125005 13 229 1.6 9.7 0.00 0.05 0.05 56 1015.4
20260506124505 13 162 1.6 1.6 0.00 0.05 0.05 55 1015.4
20260506124005 13 141 4.8 12.9 0.00 0.05 0.05 54 1015.5
20260506123505 13 250 4.8 8.0 0.00 0.05 0.05 53 1015.5
20260506123005 13 156 4.8 11.3 0.00 0.05 0.05 56 1015.5
20260506122505 13 131 4.8 8.0 0.00 0.05 0.05 57 1015.6
20260506122005 13 156 3.2 9.7 0.00 0.05 0.05 57 1015.7
20260506121505 13 158 3.2 8.0 0.00 0.05 0.05 56 1015.6
20260506121005 13 210 3.2 6.4 0.00 0.05 0.05 58 1015.7
20260506120505 13 176 4.8 6.4 0.00 0.05 0.05 58 1015.8
20260506120005 13 175 3.2 12.9 0.00 0.05 0.05 58 1015.8
20260506115505 12 184 3.2 8.0 0.00 0.05 0.05 59 1015.9
20260506115005 12 179 4.8 8.0 0.00 0.05 0.05 58 1015.9
20260506114505 13 178 4.8 12.9 0.00 0.05 0.05 56 1015.9
20260506114005 13 65 3.2 9.7 0.00 0.05 0.05 54 1016.0
20260506113505 13 287 3.2 6.4 0.00 0.05 0.05 56 1016.0
20260506113005 13 356 3.2 8.0 0.00 0.05 0.05 57 1016.1
20260506112505 12 99 4.8 12.9 0.00 0.05 0.05 58 1016.1
20260506112005 12 110 4.8 11.3 0.00 0.05 0.05 59 1016.1
20260506111505 12 128 3.2 11.3 0.00 0.05 0.05 58 1016.2
20260506111005 12 110 3.2 6.4 0.00 0.05 0.05 58 1016.1
20260506110505 12 49 4.8 6.4 0.00 0.05 0.05 60 1016.1
20260506110005 12 160 4.8 11.3 0.00 0.05 0.05 60 1016.3
20260506105505 12 132 3.2 12.9 0.00 0.05 0.05 61 1016.2
20260506105005 12 71 3.2 9.7 0.00 0.05 0.05 63 1016.2
20260506104505 11 116 3.2 8.0 0.00 0.05 0.05 64 1016.2
20260506104005 11 208 3.2 8.0 0.00 0.05 0.05 62 1016.2
20260506103505 11 230 4.8 9.7 0.00 0.05 0.05 62 1016.2
20260506103005 11 211 3.2 11.3 0.00 0.05 0.05 63 1016.2
20260506102505 12 240 1.6 16.1 0.00 0.05 0.05 64 1016.3
20260506102005 11 75 0.0 4.8 0.00 0.05 0.05 66 1016.3
20260506101505 11 249 1.6 3.2 0.00 0.05 0.05 68 1016.3
20260506101005 11 257 1.6 4.8 0.00 0.05 0.05 69 1016.4
20260506100505 11 266 1.6 4.8 0.00 0.05 0.05 69 1016.5
20260506100005 11 256 1.6 4.8 0.00 0.05 0.05 72 1016.5
20260506095505 10 79 3.2 4.8 0.00 0.05 0.05 71 1016.5
20260506095005 10 242 3.2 8.0 0.03 0.05 0.05 73 1016.6
20260506094505 10 200 1.6 8.0 0.03 0.05 0.05 75 1016.6
20260506094005 10 333 1.6 4.8 0.03 0.05 0.05 52 1016.6
20260506093505 9 238 0.0 4.8 0.03 0.05 0.05 45 1016.6
20260506093005 9 310 0.0 4.8 0.03 0.05 0.05 43 1016.6
20260506092505 8 327 1.6 3.2 0.03 0.05 0.05 43 1016.6
20260506092005 8 340 1.6 3.2 0.03 0.05 0.05 44 1016.7
20260506091505 8 328 0.0 3.2 0.03 0.05 0.05 44 1016.7
20260506091005 8 322 0.0 1.6 0.03 0.05 0.05 45 1016.8
20260506090505 8 274 0.0 4.8 0.03 0.05 0.05 45 1016.8
20260506090005 8 240 0.0 3.2 0.03 0.05 0.05 45 1016.8
20260506085505 7 268 1.6 3.2 0.03 0.05 0.05 45 1016.8
20260506085005 7 349 1.6 4.8 0.00 0.03 0.03 46 1016.7
20260506084505 7 268 1.6 6.4 0.00 0.03 0.03 46 1016.7
20260506084005 7 324 0.0 4.8 0.00 0.03 0.03 47 1016.7
20260506083505 6 301 1.6 3.2 0.00 0.03 0.03 47 1016.6
20260506083006 6 290 1.6 6.4 0.00 0.03 0.03 47 1016.6
20260506082506 6 264 0.0 3.2 0.00 0.03 0.03 47 1016.6
20260506082006 6 281 1.6 3.2 0.00 0.03 0.03 48 1016.6
20260506081506 6 338 1.6 4.8 0.00 0.03 0.03 48 1016.7
20260506081006 5 304 1.6 4.8 0.00 0.03 0.03 49 1016.7
20260506080506 5 277 1.6 4.8 0.00 0.03 0.03 49 1016.7
20260506073506 4 329 0.0 1.6 0.00 0.03 0.03 50 1016.7
20260506073006 4 92 0.0 1.6 0.00 0.03 0.03 51 1016.7
20260506072506 4 340 0.0 1.6 0.00 0.03 0.03 51 1016.7
20260506072006 3 337 0.0 1.6 0.00 0.05 0.03 51 1016.8
20260506071506 3 328 0.0 1.6 0.00 0.05 0.03 51 1016.7
20260506071006 3 328 0.0 3.2 0.00 0.05 0.03 52 1016.6
20260506070506 3 347 0.0 3.2 0.00 0.05 0.03 52 1016.7
20260506062506 2 83 1.6 4.8 0.00 0.05 0.03 53 1016.4
20260506062006 3 136 0.0 4.8 0.00 0.05 0.03 53 1016.4
20260506061506 2 129 1.6 4.8 0.00 0.05 0.03 54 1016.4
20260506061006 2 96 1.6 4.8 0.00 0.05 0.03 54 1016.4
20260506060506 2 106 0.0 4.8 0.00 0.05 0.03 54 1016.4
20260506051006 3 91 0.0 1.6 0.00 0.05 0.03 55 1016.0
20260506050506 3 114 0.0 0.0 0.00 0.05 0.03 55 1015.9
20260506045006 3 114 0.0 0.0 0.00 0.05 0.03 55 1016.0
20260506044506 3 114 0.0 0.0 0.00 0.05 0.03 55 1016.0
20260506044006 3 114 0.0 1.6 0.00 0.05 0.03 55 1016.1
20260506043506 3 122 0.0 1.6 0.00 0.05 0.03 55 1016.2
20260506043006 3 113 0.0 1.6 0.00 0.05 0.03 55 1016.2
20260506042506 3 79 0.0 0.0 0.00 0.05 0.03 55 1016.2
20260506042006 3 78 0.0 0.0 0.00 0.05 0.03 55 1016.1
20260506041506 3 79 0.0 1.6 0.00 0.05 0.03 55 1016.2
20260506041006 3 78 0.0 0.0 0.00 0.05 0.03 55 1016.2
20260506040506 3 79 0.0 0.0 0.00 0.05 0.03 56 1016.2
20260506040006 3 73 0.0 1.6 0.00 0.05 0.03 56 1016.2
20260506035506 3 338 0.0 1.6 0.00 0.05 0.03 56 1016.0
20260506035006 3 297 0.0 1.6 0.00 0.05 0.03 57 1016.1
20260506034506 3 226 0.0 1.6 0.00 0.05 0.03 57 1016.1
20260506034006 3 226 0.0 0.0 0.00 0.05 0.03 58 1016.1
20260506033506 3 226 0.0 0.0 0.00 0.05 0.03 59 1016.2
20260506033007 3 226 0.0 0.0 0.00 0.05 0.03 59 1016.2
20260506032507 3 226 0.0 0.0 0.00 0.05 0.03 58 1016.2
20260506032007 3 226 0.0 0.0 0.00 0.05 0.03 58 1016.2
20260506031507 3 226 0.0 0.0 0.00 0.05 0.03 58 1016.2
20260506031007 3 226 0.0 0.0 0.00 0.05 0.03 59 1016.3
20260506030507 3 226 0.0 0.0 0.00 0.05 0.03 59 1016.3
20260506030007 3 226 0.0 1.6 0.00 0.05 0.03 59 1016.3
20260506025507 3 225 0.0 0.0 0.00 0.05 0.03 60 1016.3
20260506025007 3 226 0.0 1.6 0.00 0.05 0.03 60 1016.3
20260506024507 3 226 0.0 1.6 0.00 0.05 0.03 60 1016.2
20260506024007 3 226 0.0 0.0 0.00 0.05 0.03 61 1016.1
20260506022508 3 226 0.0 1.6 0.00 0.05 0.03 61 1016.0
20260506022007 3 219 0.0 1.6 0.00 0.05 0.03 62 1016.2
20260506021507 3 103 0.0 0.0 0.00 0.05 0.03 62 1016.2
20260506021007 3 103 0.0 0.0 0.00 0.05 0.03 62 1016.1
20260506015507 3 103 0.0 0.0 0.00 0.05 0.03 63 1016.1
20260506015007 4 103 0.0 0.0 0.00 0.05 0.03 63 1016.1
20260506014507 4 103 1.6 1.6 0.00 0.05 0.03 63 1016.1
20260506013507 4 85 3.2 4.8 0.00 0.05 0.03 63 1016.2
20260506013007 4 94 3.2 4.8 0.00 0.05 0.03 64 1016.2
20260506012507 5 103 3.2 6.4 0.00 0.05 0.03 64 1016.2
20260506012007 5 96 3.2 6.4 0.00 0.05 0.03 63 1016.2
20260506011507 5 90 3.2 6.4 0.00 0.05 0.03 62 1016.2
20260506011007 5 108 1.6 4.8 0.00 0.05 0.03 62 1016.2
20260506010507 5 72 0.0 1.6 0.03 0.05 0.03 63 1016.2
20260506010007 5 72 0.0 0.0 0.03 0.05 0.03 63 1016.2
20260506005507 5 72 0.0 0.0 0.03 0.05 0.03 63 1016.2
20260506005007 5 72 1.6 1.6 0.03 0.05 0.03 63 1016.2
20260506004507 5 72 1.6 3.2 0.03 0.05 0.03 62 1016.2
20260506004007 5 68 0.0 1.6 0.03 0.05 0.03 62 1016.3
20260506003507 5 76 0.0 1.6 0.03 0.05 0.03 61 1016.3
20260506003007 5 68 0.0 1.6 0.03 0.05 0.03 61 1016.4
20260506002507 5 68 0.0 1.6 0.03 0.05 0.03 62 1016.5
20260506002007 5 359 0.0 0.0 0.03 0.05 0.03 63 1016.4
20260506001507 5 357 0.0 1.6 0.03 0.05 0.03 63 1016.4
20260506001007 5 1 0.0 1.6 0.03 0.05 0.03 63 1016.3
20260506000507 5 53 0.0 1.6 0.00 0.03 0.00 63 1016.4
20260506000007 5 333 0.0 0.0 0.00 0.03 0.00 64 1016.3
20260505235507 5 333 0.0 0.0 0.00 0.03 0.00 64 1016.3
20260505235007 5 332 0.0 0.0 0.00 0.03 0.00 64 1016.3
20260505234507 5 332 0.0 0.0 0.00 0.03 0.00 63 1016.3
20260505234007 6 333 0.0 0.0 0.00 0.03 0.00 63 1016.3
20260505233507 5 333 0.0 1.6 0.00 0.03 0.00 63 1016.3
20260505233007 5 330 0.0 1.6 0.00 0.03 0.00 64 1016.4
20260505232507 5 300 0.0 1.6 0.00 0.03 0.00 63 1016.4
20260505232007 5 304 0.0 0.0 0.00 0.03 0.00 63 1016.5
20260505231507 5 309 1.6 1.6 0.00 0.03 0.00 64 1016.5
20260505231007 5 339 1.6 3.2 0.00 0.03 0.00 64 1016.5
20260505230507 5 330 1.6 4.8 0.00 0.03 0.00 65 1016.4
20260505230007 5 1 1.6 3.2 0.00 0.03 0.00 66 1016.4
20260505225507 5 274 0.0 0.0 0.00 0.03 0.00 66 1016.4
20260505225007 5 274 0.0 0.0 0.00 0.03 0.00 67 1016.5
20260505224515 6 274 0.0 0.0 0.00 0.03 0.00 67 1016.5
20260505224008 6 274 0.0 0.0 0.00 0.03 0.00 67 1016.5
20260505223507 6 274 0.0 3.2 0.00 0.03 0.00 68 1016.6
20260505223007 6 85 0.0 0.0 0.00 0.03 0.00 68 1016.6
20260505222508 6 85 0.0 0.0 0.00 0.03 0.00 70 1016.6
20260505222008 6 85 0.0 0.0 0.00 0.03 0.00 70 1016.5
20260505221508 6 85 0.0 0.0 0.00 0.03 0.00 70 1016.5
20260505221008 6 85 0.0 0.0 0.00 0.03 0.00 71 1016.5
20260505220508 6 85 0.0 0.0 0.00 0.03 0.00 71 1016.6
20260505220008 6 84 0.0 1.6 0.00 0.03 0.03 71 1016.6
20260505215508 6 91 0.0 1.6 0.00 0.03 0.03 72 1016.6
20260505215008 7 120 0.0 1.6 0.00 0.03 0.03 72 1016.6
20260505214508 7 120 1.6 3.2 0.00 0.03 0.03 72 1016.5
20260505214008 7 116 3.2 4.8 0.00 0.03 0.03 72 1016.5
20260505213508 7 95 3.2 4.8 0.00 0.03 0.03 71 1016.5
20260505213008 7 110 1.6 4.8 0.00 0.03 0.03 71 1016.5
20260505212508 7 108 0.0 1.6 0.00 0.03 0.03 70 1016.5
20260505212008 7 100 0.0 0.0 0.00 0.03 0.03 70 1016.5
20260505211508 7 100 0.0 0.0 0.00 0.03 0.03 71 1016.5
20260505211008 7 101 0.0 0.0 0.00 0.03 0.03 71 1016.5
20260505210508 7 101 0.0 0.0 0.00 0.03 0.03 72 1016.5
20260505210008 7 101 0.0 0.0 0.00 0.03 0.03 73 1016.5
20260505205508 7 101 0.0 0.0 0.00 0.03 0.03 73 1016.4
20260505205008 7 101 0.0 1.6 0.00 0.03 0.03 74 1016.3
20260505204508 7 97 1.6 1.6 0.00 0.03 0.03 74 1016.2
20260505204008 7 96 0.0 6.4 0.00 0.03 0.03 74 1016.2
20260505203508 7 323 0.0 0.0 0.00 0.03 0.03 75 1016.2
20260505203008 7 323 0.0 0.0 0.00 0.03 0.03 75 1016.1
20260505202508 7 323 0.0 0.0 0.00 0.03 0.03 75 1016.2
20260505202008 7 323 0.0 0.0 0.00 0.05 0.03 75 1016.1
20260505201508 7 323 0.0 0.0 0.00 0.05 0.03 75 1016.0
20260505201008 8 323 0.0 0.0 0.00 0.05 0.03 75 1015.9
20260505200508 8 323 0.0 0.0 0.00 0.05 0.03 75 1015.9
20260505200008 8 323 0.0 0.0 0.00 0.05 0.03 75 1015.9
20260505195508 8 323 0.0 0.0 0.00 0.05 0.03 75 1015.8
20260505195008 8 323 0.0 0.0 0.00 0.05 0.03 75 1015.8
20260505194508 8 323 0.0 0.0 0.00 0.05 0.03 75 1015.8
20260505194008 8 323 0.0 0.0 0.00 0.05 0.03 75 1015.7
20260505193508 8 323 0.0 0.0 0.00 0.05 0.03 75 1015.7
20260505193009 8 323 0.0 1.6 0.00 0.05 0.03 75 1015.6
20260505192508 9 323 0.0 1.6 0.00 0.05 0.03 74 1015.6
20260505192008 9 333 0.0 1.6 0.00 0.05 0.03 74 1015.5
20260505191508 9 34 0.0 1.6 0.00 0.05 0.03 74 1015.5
20260505191008 9 69 0.0 1.6 0.00 0.05 0.03 74 1015.5
20260505190508 10 73 1.6 3.2 0.00 0.05 0.03 74 1015.5
20260505190008 10 79 3.2 6.4 0.00 0.05 0.03 74 1015.5
20260505185508 10 68 4.8 8.0 0.00 0.05 0.03 74 1015.6